Location: Brantley
(31.5822°N, 86.2569°W)
Time: 12:15:01
(UTC+00:00)

Courier 1B Rocket - Pass Details

Date: 24 February 2026
Orbit: 920 x 1201 km, 28.2° (Epoch: 17 March)

Event Time Altitude Azimuth Distance (km) Brightness Sun altitude
Rises 22:36:01 0° 251° (WSW) 3,650 10.2 12.2°
Reaches altitude 10° 22:38:46 10° 247° (WSW) 2,671 10.5 11.7°
Maximum altitude 22:45:00 57° 170° (S) 1,080 5.5 10.4°
Drops below altitude 10° 22:51:04 10° 93° (E) 2,603 6.7 9.2°
Sets 22:53:42 0° 89° (E) 3,550 7.3 8.6°
